When you browse on this site, cookies collect data to enhance your experience and personalize the content and advertising you see.
Visit our Privacy Policy to learn more. By continuing to use the site, you agree to this use of cookies and data.
  • In Denmark
  • List of Countries
  • For 7 days
  • Water Temperature
  • Satellite Maps
  • Weather Map
  • Weather Widgets
  • user-avatar
    Login

    Hourly Weather Egilsstaðir

    Today, 22 March, Friday

    Time Temperature Precipitation Wind Pressure Humidity
    00:00 -12°C° 0.1 mm 7 mps 669 mmHg 90%
    01:00 -11°C° 0 mm 6 mps 670 mmHg 92%
    02:00 -11°C° 0.1 mm 5 mps 670 mmHg 93%
    03:00 -11°C° 0.1 mm 5 mps 670 mmHg 94%
    04:00 -10°C° 0.1 mm 4 mps 670 mmHg 95%
    05:00 -9°C° 0 mm 3 mps 670 mmHg 95%
    06:00 -9°C° 0 mm 3 mps 671 mmHg 96%
    07:00 -7°C° 0 mm 3 mps 671 mmHg 97%
    08:00 -6°C° 0.2 mm 3 mps 671 mmHg 96%
    09:00 -6°C° 0.2 mm 3 mps 671 mmHg 95%
    10:00 -5°C° 0.2 mm 3 mps 671 mmHg 93%
    11:00 -6°C° 0.2 mm 5 mps 670 mmHg 91%
    12:00 -7°C° 0.2 mm 7 mps 669 mmHg 89%
    13:00 -8°C° 0 mm 9 mps 668 mmHg 84%
    14:00 -8°C° 0.6 mm 9 mps 667 mmHg 87%
    15:00 -8°C° 0.6 mm 9 mps 666 mmHg 90%
    16:00 -8°C° 0.6 mm 9 mps 664 mmHg 94%
    17:00 -7°C° 1 mm 8 mps 663 mmHg 94%
    18:00 -7°C° 1 mm 7 mps 662 mmHg 94%
    19:00 -6°C° 1 mm 7 mps 661 mmHg 95%
    20:00 -5°C° 0.5 mm 6 mps 660 mmHg 94%
    21:00 -4°C° 0.5 mm 6 mps 659 mmHg 93%
    22:00 -4°C° 0.5 mm 5 mps 659 mmHg 93%
    23:00 -4°C° 0.6 mm 6 mps 658 mmHg 93%

    Tomorrow, 23 March, Saturday

    Time Temperature Precipitation Wind Pressure Humidity
    00:00 -4°C° 0.6 mm 6 mps 658 mmHg 94%
    01:00 -4°C° 0.6 mm 7 mps 657 mmHg 95%
    02:00 -5°C° 0.5 mm 8 mps 657 mmHg 94%
    03:00 -6°C° 0.5 mm 9 mps 656 mmHg 94%
    04:00 -8°C° 0.5 mm 10 mps 655 mmHg 93%
    05:00 -8°C° 0.3 mm 11 mps 655 mmHg 92%
    06:00 -10°C° 0.3 mm 12 mps 654 mmHg 92%
    07:00 -11°C° 0.3 mm 12 mps 653 mmHg 91%
    08:00 -11°C° 0.6 mm 13 mps 653 mmHg 90%
    09:00 -11°C° 0.6 mm 14 mps 652 mmHg 88%
    10:00 -12°C° 0.6 mm 15 mps 652 mmHg 87%
    11:00 -12°C° 0.6 mm 15 mps 652 mmHg 89%
    12:00 -12°C° 0.6 mm 15 mps 651 mmHg 90%
    13:00 -12°C° 0.6 mm 16 mps 651 mmHg 92%
    14:00 -13°C° 0.8 mm 16 mps 651 mmHg 91%
    15:00 -13°C° 0.8 mm 17 mps 650 mmHg 91%
    16:00 -14°C° 0.8 mm 18 mps 650 mmHg 91%
    17:00 -14°C° 1.3 mm 18 mps 650 mmHg 91%
    18:00 -14°C° 1.3 mm 18 mps 650 mmHg 92%
    19:00 -14°C° 1.3 mm 18 mps 650 mmHg 92%
    20:00 -14°C° 1 mm 18 mps 651 mmHg 92%
    21:00 -14°C° 1 mm 18 mps 651 mmHg 92%
    22:00 -14°C° 1 mm 18 mps 652 mmHg 92%
    23:00 -15°C° 0.9 mm 17 mps 653 mmHg 92%

    Day after tomorrow, 24 March, Sunday

    Time Temperature Precipitation Wind Pressure Humidity
    00:00 -15°C° 0.9 mm 17 mps 654 mmHg 92%
    01:00 -15°C° 0.9 mm 17 mps 654 mmHg 93%
    02:00 -14°C° 0.5 mm 16 mps 655 mmHg 92%
    03:00 -15°C° 0.5 mm 15 mps 655 mmHg 91%
    04:00 -15°C° 0.5 mm 14 mps 656 mmHg 90%
    05:00 -15°C° 0.2 mm 13 mps 656 mmHg 90%
    06:00 -15°C° 0.2 mm 12 mps 656 mmHg 90%
    07:00 -15°C° 0.2 mm 12 mps 656 mmHg 90%
    08:00 -14°C° 0.1 mm 11 mps 657 mmHg 90%
    09:00 -13°C° 0.1 mm 11 mps 658 mmHg 89%
    10:00 -13°C° 0.1 mm 10 mps 658 mmHg 88%
    11:00 -13°C° 0.1 mm 10 mps 658 mmHg 87%
    12:00 -13°C° 0.1 mm 10 mps 659 mmHg 86%
    13:00 -11°C° 0.1 mm 9 mps 659 mmHg 85%
    14:00 -12°C° 0.1 mm 8 mps 659 mmHg 86%
    15:00 -12°C° 0.1 mm 7 mps 659 mmHg 86%
    16:00 -11°C° 0.1 mm 6 mps 659 mmHg 87%
    17:00 -12°C° 0 mm 5 mps 658 mmHg 90%
    18:00 -13°C° 0 mm 3 mps 658 mmHg 92%
    19:00 -13°C° 0 mm 2 mps 658 mmHg 94%
    20:00 -14°C° 0 mm 2 mps 658 mmHg 95%
    21:00 -14°C° 0 mm 2 mps 658 mmHg 95%
    22:00 -15°C° 0 mm 2 mps 658 mmHg 96%
    23:00 -15°C° 0 mm 2 mps 659 mmHg 95%

    25 March, Monday

    Time Temperature Precipitation Wind Pressure Humidity
    00:00 -15°C° 0 mm 2 mps 659 mmHg 95%
    01:00 -16°C° 0 mm 2 mps 659 mmHg 95%
    02:00 -16°C° 0 mm 2 mps 660 mmHg 95%
    03:00 -16°C° 0 mm 2 mps 661 mmHg 95%
    04:00 -16°C° 0 mm 2 mps 662 mmHg 95%
    05:00 -16°C° 0 mm 2 mps 662 mmHg 95%
    06:00 -16°C° 0 mm 2 mps 663 mmHg 95%
    07:00 -16°C° 0 mm 2 mps 664 mmHg 95%
    08:00 -14°C° 0 mm 2 mps 664 mmHg 94%
    09:00 -13°C° 0 mm 2 mps 665 mmHg 94%
    10:00 -12°C° 0 mm 2 mps 666 mmHg 93%
    11:00 -13°C° 0.1 mm 5 mps 666 mmHg 91%
    12:00 -13°C° 0.1 mm 7 mps 667 mmHg 90%
    13:00 -12°C° 0.1 mm 9 mps 667 mmHg 88%
    14:00 -13°C° 0.8 mm 10 mps 666 mmHg 90%
    15:00 -13°C° 0.8 mm 10 mps 666 mmHg 92%
    16:00 -13°C° 0.8 mm 11 mps 666 mmHg 94%
    17:00 -13°C° 0.7 mm 10 mps 666 mmHg 93%
    18:00 -14°C° 0.7 mm 9 mps 666 mmHg 93%
    19:00 -13°C° 0.7 mm 7 mps 665 mmHg 92%
    20:00 -14°C° 0.1 mm 6 mps 666 mmHg 93%
    21:00 -15°C° 0.1 mm 5 mps 666 mmHg 93%
    22:00 -16°C° 0.1 mm 4 mps 666 mmHg 94%
    23:00 -17°C° 0 mm 3 mps 666 mmHg 94%

    26 March, Tuesday

    Time Temperature Precipitation Wind Pressure Humidity
    00:00 -17°C° 0 mm 2 mps 666 mmHg 95%
    01:00 -19°C° 0 mm 2 mps 666 mmHg 95%
    02:00 -17°C° 0 mm 1 mps 666 mmHg 93%
    03:00 -18°C° 0 mm 1 mps 666 mmHg 92%
    04:00 -18°C° 0 mm 1 mps 666 mmHg 90%
    05:00 -17°C° 0 mm 1 mps 666 mmHg 86%
    06:00 -16°C° 0 mm 1 mps 666 mmHg 82%
    07:00 -15°C° 0 mm 1 mps 666 mmHg 78%
    08:00 -14°C° 0 mm 1 mps 666 mmHg 78%
    09:00 -15°C° 0 mm 2 mps 666 mmHg 78%
    10:00 -13°C° 0 mm 2 mps 666 mmHg 78%
    11:00 -14°C° 0.2 mm 3 mps 666 mmHg 82%
    12:00 -13°C° 0.2 mm 3 mps 665 mmHg 86%
    13:00 -13°C° 0.2 mm 3 mps 665 mmHg 89%
    14:00 -12°C° 0.4 mm 3 mps 664 mmHg 91%
    15:00 -12°C° 0.4 mm 3 mps 664 mmHg 92%
    16:00 -11°C° 0.4 mm 4 mps 663 mmHg 94%
    17:00 -10°C° 0.8 mm 3 mps 663 mmHg 95%
    18:00 -10°C° 0.8 mm 3 mps 663 mmHg 95%
    19:00 -10°C° 0.8 mm 3 mps 663 mmHg 96%
    20:00 -9°C° 0.5 mm 3 mps 663 mmHg 96%
    21:00 -8°C° 0.5 mm 2 mps 664 mmHg 96%
    22:00 -7°C° 0.5 mm 2 mps 664 mmHg 96%
    23:00 -6°C° 0.2 mm 2 mps 665 mmHg 96%

    27 March, Wednesday

    Time Temperature Precipitation Wind Pressure Humidity
    00:00 -5°C° 0.2 mm 2 mps 665 mmHg 96%
    01:00 -4°C° 0.2 mm 2 mps 666 mmHg 96%
    02:00 -4°C° 0.1 mm 2 mps 666 mmHg 96%
    03:00 -4°C° 0.1 mm 2 mps 666 mmHg 96%
    04:00 -3°C° 0.1 mm 2 mps 667 mmHg 96%
    05:00 -3°C° 0.1 mm 2 mps 667 mmHg 96%
    06:00 -3°C° 0.1 mm 2 mps 667 mmHg 96%
    07:00 -3°C° 0.1 mm 2 mps 668 mmHg 96%
    08:00 -4°C° 0.4 mm 3 mps 668 mmHg 97%
    09:00 -2°C° 0.4 mm 3 mps 669 mmHg 98%
    10:00 -2°C° 0.4 mm 3 mps 669 mmHg 99%
    11:00 -3°C° 0.2 mm 4 mps 670 mmHg 99%
    12:00 -3°C° 0.2 mm 4 mps 670 mmHg 99%
    13:00 -4°C° 0.2 mm 5 mps 671 mmHg 99%
    14:00 -4°C° 0.1 mm 5 mps 671 mmHg 97%
    15:00 -4°C° 0.1 mm 6 mps 672 mmHg 95%
    16:00 -6°C° 0.1 mm 7 mps 672 mmHg 93%
    17:00 -6°C° 0 mm 7 mps 672 mmHg 93%
    18:00 -6°C° 0 mm 6 mps 673 mmHg 94%
    19:00 -8°C° 0 mm 6 mps 673 mmHg 95%
    20:00 -7°C° 0 mm 7 mps 672 mmHg 94%
    21:00 -8°C° 0 mm 9 mps 672 mmHg 93%
    22:00 -8°C° 0 mm 10 mps 672 mmHg 92%
    23:00 -7°C° 0 mm 11 mps 672 mmHg 93%
    Show more